Location: Arrien
(43.3167°N, 0.1500°W)
Time: 03:34:55
(UTC+00:00)

Cosmos 2298 Rocket - Pass Details

Date: 15 October 2021
Orbit: 776 x 783 km, 74.0° (Epoch: 02 December)

Event Time Altitude Azimuth Distance (km) Brightness Sun altitude
Rises 17:46:30 0° 181° (S) 3,247 7.4 -6.1°
Reaches altitude 10° 17:48:57 10° 176° (S) 2,322 6.5 -6.5°
Maximum altitude 17:53:58 46° 104° (ESE) 1,035 4.3 -7.4°
Drops below altitude 10° 17:59:01 10° 32° (NNE) 2,335 6.2 -8.3°
Sets 18:01:29 0° 26° (NNE) 3,266 7.0 -8.8°
